Skip Page Navigation
NASA JPL Caltech
NASA Logo - Jet Propulsion Laboratory + View the NASA Portal
+ Center for Near-Earth Object Studies
JPL Home Earth Solar System Stars & Galaxies Technology
JPL Solar System Dynamics
BODIES ORBITS EPHEMERIDES TOOLS PHYSICAL DATA DISCOVERY FAQ SITE MAP
JPL Small-Body Database Browser
Search: [ help ]  
115023 (2003 QX94)
Classification: Main-belt Asteroid          SPK-ID: 2115023
Ephemeris | Orbit Diagram | Orbital Elements | Mission Design | Physical Parameters | Discovery Circumstances | Close-Approach Data ]

[ show orbit diagram ]
Orbital Elements at Epoch 2459200.5 (2020-Dec-17.0) TDB
Reference: JPL 18 (heliocentric ecliptic J2000)
 Element Value Uncertainty (1-sigma)   Units 
e .1688568788705097 4.2732e-08  
a 3.191873717012494 2.4068e-08 au
q 2.652903883408952 1.4432e-07 au
i 26.62326188162849 8.0533e-06 deg
node 11.26285260811278 9.4993e-06 deg
peri 51.41656488252774 2.3306e-05 deg
M 315.7460469267791 2.1284e-05 deg
tp 2459456.545146575238
(2021-Aug-30.04514658)
0.00012369 TDB
period 2082.893083349515
5.70
2.3559e-05
6.45e-08
d
yr
n .1728365238128697 1.9549e-09 deg/d
Q 3.730843550616036 2.8132e-08 au
  Orbit Determination Parameters
   # obs. used (total)      625  
   data-arc span      8118 days (22.23 yr)  
   first obs. used      1998-11-17  
   last obs. used      2021-02-07  
   planetary ephem.      DE441  
   SB-pert. ephem.      SB441-N16  
   condition code      0  
   norm. resid. RMS      .53165  
   source      ORB  
   producer      Otto Matic  
   solution date      2021-Apr-13 16:41:41  

Additional Information
 Earth MOID = 1.72617 au 
 Jupiter MOID = 1.96139 au 
 T_jup = 3.010 
[ show covariance matrix ]

Ephemeris | Orbit Diagram | Orbital Elements | Mission Design | Physical Parameters | Discovery Circumstances | Close-Approach Data ]

Physical Parameter Table
Parameter Symbol Value Units Sigma Reference Notes
absolute magnitude H 14.34   n/a E2021B55  

115023 (2003 QX94)          Discovered 2003-Aug-29 by NEAT at Haleakala
Reference: 20051019/Numbers.arcLast Updated: 2005-10-26

[ show close-approach data ]
Ephemeris | Orbit Diagram | Orbital Elements | Mission Design | Physical Parameters | Discovery Circumstances | Close-Approach Data ]
ABOUT SSD CREDITS/AWARDS PRIVACY/COPYRIGHT GLOSSARY LINKS
FirstGov 2021-May-16 00:55 UT
(server date/time)  
NASA Home Page
Site Manager:   Ryan S. Park
Webmaster  Alan B. Chamberlin